This demonstration page uses our WeatherBlox Daily Observations layout. Learn more.

Left ArrowRight Arrow

36.17497, -115.13722

Hourly Observations for March 8, 2016

Temp ( °F °C ) Dew Point ( °F °C ) Humidity (%) Winds ( mph kmh ) Pressure ( in mb ) Visibility ( mi km ) Precip ( " mm )
12:53 am 00:53 Clear 48 8.9 34 1.1 58 58 NNW 15 24 29.84 1011 10 16.0934 0 0
1:53 am 01:53 Partly Cloudy 48 8.9 34 1.1 58 58 NNW 15 24 29.83 1010 10 16.0934 0 0
2:53 am 02:53 Clear 48 8.9 33 0.6 56 56 NNW 15 24 29.84 1010 10 16.0934 0 0
3:53 am 03:53 Clear 47 8.3 33 0.6 59 59 N 20 31 29.85 1011 10 16.0934 0 0
4:53 am 04:53 Clear 47 8.3 33 0.6 59 59 NNW 21 33 29.88 1012 10 16.0934 0 0
5:53 am 05:53 Clear 47 8.3 32 0 56 56 N 18 30 29.9 1012 10 16.0934 0 0
6:53 am 06:53 Sunny 49 9.4 31 -0.6 50 50 N 18 30 29.92 1013 10 16.0934 0 0
7:53 am 07:53 Sunny 52 11.1 31 -0.6 45 45 NNW 18 30 29.94 1014 10 16.0934 0 0
8:53 am 08:53 Sunny 57 13.9 29 -1.7 34 34 N 18 30 29.96 1014 10 16.0934 0 0
9:53 am 09:53 Sunny 60 15.6 26 -3.3 27 27 N 18 30 29.96 1015 10 16.0934 0 0
10:53 am 10:53 Sunny 63 17.2 26 -3.3 25 25 N 17 28 29.95 1014 10 16.0934 0 0
11:53 am 11:53 Sunny 64 17.8 24 -4.4 22 22 N 9 15 29.91 1013 10 16.0934 0 0
12:53 pm 12:53 Sunny 67 19.4 19 -7.2 16 16 NNW 10 17 29.9 1013 10 16.0934 0 0
1:53 pm 13:53 Sunny 69 20.6 17 -8.3 14 14 NNW 20 31 29.88 1012 10 16.0934 0 0
2:53 pm 14:53 Sunny 69 20.6 16 -8.9 13 13 NW 13 20 29.86 1011 10 16.0934 0 0
3:53 pm 15:53 Sunny 68 20 19 -7.2 15 15 NNW 16 26 29.86 1011 10 16.0934 0 0
4:53 pm 16:53 Sunny 67 19.4 18 -7.8 15 15 NNW 15 24 29.86 1011 10 16.0934 0 0
5:53 pm 17:53 Clear 65 18.3 20 -6.7 18 18 W 12 19 29.88 1012 10 16.0934 0 0
6:53 pm 18:53 Clear 64 17.8 18 -7.8 17 17 NNW 8 13 29.91 1013 10 16.0934 0 0
7:53 pm 19:53 Clear 61 16.1 21 -6.1 21 21 NNW 10 17 29.93 1014 10 16.0934 0 0
8:53 pm 20:53 Clear 60 15.6 22 -5.6 23 23 SW 5 7 29.91 1013 10 16.0934 0 0
9:53 pm 21:53 Partly Cloudy 61 16.1 23 -5 23 23 NW 8 13 29.93 1013 10 16.0934 0 0
10:53 pm 22:53 Clear 61 16.1 22 -5.6 22 22 NNW 10 17 29.93 1013 10 16.0934 0 0
11:53 pm 23:53 Clear 58 14.4 22 -5.6 25 25 ESE 5 7 29.93 1014 10 16.0934 0 0

Powered by AerisWeather